Theta_e
314 314 314 312 310 308 307 306 309 314 309 304 300 302 303 302 305 307 306 305 304 303 304 305 305 305 307 308 308 305 308 306 302 305 311 310 310 309 309 302 303 303 304 305
314 314 313 312 310 309 307 307 310 316 310 300 301 301 302 302 305 307 306 303 305 306 305 303 305 307 313 311 309 308 307 304 301 304 305 306 306 308 308 307 307 305 303 305
314 314 313 312 311 309 309 311 308 310 308 305 305 305 305 306 309 308 308 308 306 305 304 307 305 307 313 314 315 321 312 305 306 303 306 307 305 305 306 308 305 306 306 309
314 314 314 313 311 309 310 309 305 306 304 306 308 308 308 306 306 310 309 307 305 305 303 304 305 307 309 313 320 311 309 307 304 305 305 305 307 308 306 307 310 307 309 309
314 314 314 313 311 308 310 308 306 308 304 304 306 303 307 305 306 306 307 305 309 308 303 306 305 307 310 311 313 315 311 311 310 309 311 311 309 311 310 309 309 309 311 312
314 314 314 313 310 308 308 307 309 307 300 305 306 306 306 305 305 308 310 310 310 309 307 312 315 315 313 311 312 314 315 312 310 305 309 309 307 312 313 313 316 314 311 318
314 314 314 313 311 308 306 306 307 303 298 303 305 303 304 305 305 304 308 310 311 314 315 314 312 311 311 311 312 314 313 313 311 305 308 300 310 314 315 314 317 320 321 323
313 314 314 314 312 309 307 307 308 306 300 299 300 302 302 304 306 304 307 312 315 313 312 311 308 309 309 309 311 313 314 313 309 305 304 306 310 317 316 315 315 323 323 324
313 313 314 314 312 309 307 307 308 307 303 301 303 303 302 301 303 305 306 311 310 317 311 309 304 301 304 304 306 312 311 312 309 306 301 298 309 315 320 320 312 324 325 326
313 313 313 313 313 309 308 306 308 308 303 306 305 303 300 303 303 302 303 304 308 315 312 306 304 303 306 302 302 305 306 308 304 304 302 305 312 317 320 308 309 322 326 327
312 313 313 313 313 311 309 306 308 306 302 303 306 307 304 305 305 301 304 303 306 308 309 309 306 304 306 304 306 307 305 304 303 304 302 298 316 317 313 318 328 330 331 329
312 312 312 313 312 311 309 304 307 308 302 303 307 310 312 311 310 304 304 304 304 308 306 307 309 308 309 306 302 308 305 308 308 309 310 316 318 318 322 324 326 332 331 331
312 312 312 312 312 311 309 306 305 306 304 307 307 308 313 314 313 314 305 306 306 309 311 311 310 306 309 304 304 305 308 312 310 309 313 315 318 321 322 328 332 334 333 332
312 312 311 312 312 310 309 306 306 306 306 303 305 311 310 311 312 313 312 309 310 311 311 309 307 304 311 308 307 306 308 310 308 310 313 315 317 320 322 330 333 332 331 333
311 311 311 311 311 310 309 307 308 308 307 301 303 308 307 310 313 310 311 310 308 309 308 307 305 308 307 306 304 304 310 308 306 306 312 311 316 319 321 325 332 331 330 330
310 311 311 310 310 309 307 310 309 309 310 305 298 306 308 313 312 309 309 310 309 309 308 309 309 308 308 304 302 305 308 311 311 310 313 312 315 320 323 326 332 330 330 330
310 310 310 309 309 308 306 309 312 309 311 306 300 303 312 312 311 313 314 312 311 310 310 308 308 309 308 306 301 308 311 312 313 315 315 316 319 319 322 328 327 325 326 326
309 309 309 309 309 307 311 314 310 311 309 308 302 305 307 311 310 309 311 312 311 310 310 309 308 309 307 303 308 311 313 314 314 314 316 314 316 318 321 324 325 324 322 322
309 309 308 309 310 311 310 312 311 312 308 302 305 303 301 311 309 309 310 309 306 309 308 308 308 306 304 307 309 311 313 312 312 314 317 315 315 317 319 322 322 322 320 321
307 306 307 309 310 309 311 310 307 308 309 306 301 305 304 308 309 308 307 307 305 301 304 308 307 306 309 311 314 315 315 315 315 314 313 314 314 314 316 319 322 322 321 320
303 299 301 304 307 310 308 305 305 306 304 306 308 307 305 311 306 306 307 306 305 299 302 304 302 304 308 314 315 317 317 317 316 317 317 316 315 315 317 317 318 319 320 320
303 302 304 304 308 306 303 303 304 303 302 305 307 307 308 310 310 307 306 304 304 297 307 304 300 306 311 313 314 316 317 316 316 317 316 316 315 316 318 317 316 316 317 318
305 302 302 303 304 295 298 295 300 301 305 307 307 307 309 310 311 306 305 300 298 306 302 300 306 310 312 313 314 316 317 316 317 316 317 317 317 318 316 317 316 316 316 317
301 301 291 298 298 300 302 302 304 307 307 306 308 308 309 309 307 306 301 304 305 299 297 299 308 311 312 313 314 316 315 315 315 316 316 315 315 317 317 318 316 316 315 315
298 301 293 298 303 304 305 307 306 307 308 308 307 308 310 307 305 305 303 299 297 300 300 306 311 312 312 311 313 312 316 316 314 313 313 314 312 312 313 316 317 317 317 317
301 299 298 303 301 302 304 305 306 308 308 308 309 306 303 302 304 301 299 298 296 302 308 312 311 311 312 312 312 313 315 317 316 316 312 313 313 313 314 316 318 319 318 317
300 299 304 303 302 301 303 305 306 309 307 304 305 301 299 304 302 300 304 301 306 309 311 312 311 311 312 312 312 312 314 316 316 316 313 311 312 314 316 315 315 318 317 317
Wind_Speed
22 23 24 28 30 29 2 2 2 3 3 2 1 4 4 1 1 3 4 3 6 6 4 4 4 7 8 8 9 9 9 5 13 22 10 4 8 11 9 5 5 3 4 6
22 23 24 25 28 21 4 2 2 2 3 2 2 1 2 3 2 2 1 3 5 2 3 3 6 5 3 7 9 9 10 7 7 5 5 4 7 9 8 4 2 8 5 6
21 23 24 26 26 19 2 1 2 2 2 1 2 2 1 1 3 5 4 4 3 3 5 6 6 5 3 3 4 4 10 5 7 10 4 2 5 7 11 12 6 7 10 11
21 22 24 27 29 20 3 4 3 2 2 2 1 2 2 1 2 3 2 2 8 7 5 3 7 6 9 7 6 4 7 7 5 9 7 5 8 9 14 13 10 8 9 8
20 21 23 24 28 23 3 3 3 1 1 2 3 1 3 2 1 3 1 3 11 6 7 8 5 7 4 6 3 6 5 4 5 3 4 0 2 7 11 12 6 12 9 13
20 20 21 22 26 17 4 2 1 3 1 1 3 2 1 2 1 4 8 6 8 5 2 8 14 12 13 8 4 3 3 5 4 9 3 4 6 8 12 7 7 8 9 6
19 19 20 20 19 16 2 2 1 2 1 2 2 1 2 5 3 5 5 7 3 3 12 10 7 9 8 6 2 4 2 3 2 3 2 10 6 2 4 14 8 11 10 6
20 19 18 18 16 19 2 0 2 2 3 2 5 2 4 7 6 4 4 4 5 9 5 3 3 2 3 3 3 2 2 3 3 5 9 5 4 4 6 8 10 12 12 5
19 19 19 17 15 18 2 1 1 1 3 2 3 2 2 3 4 4 3 4 7 5 1 1 4 5 2 3 3 1 4 2 4 3 6 12 4 3 2 1 11 6 11 4
18 18 18 18 16 16 5 2 2 2 3 2 3 4 1 1 1 3 4 8 5 4 2 4 5 6 1 5 5 3 2 3 8 9 8 7 3 0 3 8 9 4 5 3
17 18 17 17 16 15 7 3 2 3 2 7 6 3 4 3 2 2 4 4 2 2 2 3 1 4 3 3 2 3 6 5 5 2 5 9 2 2 6 6 6 6 4 1
17 18 18 17 15 14 8 2 2 2 4 5 3 7 10 8 7 4 3 4 2 1 1 0 2 2 2 3 7 2 5 3 3 6 2 2 3 6 6 7 7 5 4 5
18 18 18 17 14 11 6 3 3 2 3 5 4 3 2 5 13 14 4 3 1 2 2 1 1 4 1 3 2 3 3 2 3 4 1 5 4 5 4 3 6 7 3 7
18 19 18 17 13 10 5 3 1 2 2 4 2 3 5 1 5 10 15 1 1 2 1 2 2 3 2 2 4 4 4 4 5 5 6 10 1 5 7 5 3 4 5 6
18 18 18 17 14 10 5 4 3 3 3 4 6 12 2 6 6 10 10 12 6 2 2 3 4 1 3 2 2 4 1 4 3 4 4 5 9 9 12 8 2 3 3 8
19 19 19 16 12 7 2 2 4 6 3 2 4 4 5 5 6 7 7 6 5 3 3 2 2 1 3 3 2 3 5 6 7 6 13 15 16 12 7 7 2 4 6 6
19 20 20 17 10 4 3 2 3 7 3 2 4 5 2 5 2 2 2 3 2 2 1 2 2 1 2 2 8 7 10 10 8 5 12 8 3 7 6 3 5 7 8 8
21 21 18 10 9 2 2 2 7 4 1 2 3 3 3 6 3 2 3 1 1 2 1 1 2 1 1 4 5 10 12 15 2 13 10 12 13 5 1 4 7 8 8 10
22 18 2 3 2 1 2 5 10 2 3 2 2 2 2 5 2 2 0 2 2 1 1 1 3 1 0 5 10 13 13 10 14 17 14 9 7 4 4 7 8 9 9 9
14 1 1 1 2 9 1 4 3 3 2 1 3 0 2 2 2 1 2 1 2 1 3 2 1 2 3 4 8 8 8 9 10 13 12 13 8 3 2 6 5 8 8 10
4 5 2 5 9 2 2 2 3 2 3 4 3 4 3 1 2 2 2 1 1 2 3 3 0 1 3 7 8 7 8 9 8 7 9 10 9 6 6 4 2 1 8 10
3 4 4 3 2 1 3 2 1 4 2 3 3 2 3 1 1 2 2 1 1 2 2 2 2 1 4 7 10 10 9 10 9 8 7 5 3 4 5 5 10 5 6 6
1 2 2 1 2 1 5 5 3 3 4 4 3 2 1 2 1 1 2 3 1 1 2 1 1 2 4 6 8 9 8 8 6 7 8 6 6 5 7 7 9 6 7 6
2 2 5 4 4 4 4 3 1 1 2 4 2 2 0 1 2 0 2 1 2 2 2 1 1 3 5 6 6 6 8 8 7 5 5 7 7 7 3 6 9 7 10 8
3 2 5 5 3 3 3 3 3 2 2 3 3 2 1 1 1 1 1 2 2 2 1 2 2 5 5 7 6 6 5 6 5 4 5 6 6 6 2 5 9 9 8 9
3 5 4 4 3 3 1 2 3 3 3 3 1 2 1 1 1 3 2 1 1 1 2 2 3 5 6 6 5 5 5 2 2 4 5 7 6 1 2 4 6 7 7 8
4 4 4 5 5 6 4 2 1 1 3 2 2 3 1 3 1 2 3 2 2 2 3 1 4 5 5 5 5 4 4 5 4 6 6 4 4 3 2 4 3 5 7 6
Wind_Direction
346 345 345 350 349 345 62 316 114 52 261 117 351 168 192 249 263 196 268 254 242 243 252 252 244 233 248 168 154 170 201 225 249 245 262 270 256 244 208 264 209 232 299 268
348 348 347 349 353 356 327 41 74 95 288 160 159 208 222 237 235 262 215 262 233 206 235 273 236 243 261 167 179 173 167 215 248 237 173 162 221 209 233 205 211 199 239 271
349 350 350 350 352 349 287 283 128 88 64 10 127 135 128 254 210 255 235 259 207 215 259 242 277 267 264 190 204 135 169 182 236 262 321 54 197 196 192 209 198 205 235 281
351 353 354 353 351 350 292 8 69 16 155 162 231 224 178 252 291 240 259 233 234 222 231 230 238 250 270 251 158 115 205 231 202 270 277 244 263 213 187 201 215 231 295 231
353 355 356 356 355 346 72 11 340 32 69 292 229 179 182 194 205 252 240 237 317 267 243 253 285 316 255 280 168 177 179 230 201 198 253 243 276 251 217 223 239 254 252 272
353 356 358 3 7 355 40 28 105 300 28 223 227 163 159 209 327 220 251 311 309 295 194 291 280 264 277 284 294 206 214 175 204 248 191 270 243 240 238 219 220 241 218 248
353 355 359 4 14 18 329 35 289 322 266 280 257 302 308 275 268 280 302 297 260 355 308 276 237 237 251 244 257 305 201 173 219 220 161 232 292 329 234 258 268 234 270 254
352 353 357 2 11 10 306 42 327 353 300 302 276 251 296 299 294 245 253 290 355 315 300 288 283 254 253 203 46 196 309 182 198 231 228 304 240 195 204 215 257 221 244 239
350 351 355 359 4 4 357 346 332 319 305 196 282 318 325 321 324 295 275 321 323 321 338 193 228 246 299 263 211 208 122 148 254 166 255 254 279 161 138 196 257 230 226 236
348 349 351 354 358 0 352 305 5 284 287 267 205 230 302 224 224 279 307 341 335 339 299 205 220 237 219 246 257 251 259 292 267 261 260 263 358 354 236 222 281 333 255 259
342 344 346 349 353 357 356 315 345 331 279 275 225 245 218 184 219 284 4 287 168 311 308 293 181 235 186 229 250 235 248 249 235 187 238 267 28 174 235 353 322 310 313 145
336 338 340 343 347 351 3 289 28 335 238 285 298 266 263 259 269 277 232 318 270 302 303 192 274 260 251 307 239 161 225 263 317 241 300 4 288 273 298 291 287 320 349 125
327 330 333 334 337 337 336 287 302 258 277 273 268 237 185 220 228 224 239 208 294 177 325 337 351 271 242 264 239 282 178 182 250 279 144 284 281 270 261 289 296 333 14 129
319 322 324 325 326 324 306 261 173 270 296 298 305 318 298 207 176 197 217 312 67 49 279 269 281 282 176 289 339 291 4 290 338 291 297 312 235 275 307 314 344 21 70 110
316 314 315 315 318 312 275 244 226 248 307 311 299 307 257 288 265 226 211 218 245 304 269 229 267 249 223 185 236 245 190 3 303 297 319 285 294 330 333 284 285 57 101 103
313 310 309 311 310 307 229 230 176 205 223 282 302 343 277 332 42 114 159 178 192 226 246 240 228 321 268 282 294 38 8 334 306 290 316 291 283 290 304 269 183 118 117 125
311 309 308 305 280 201 240 16 51 159 194 260 294 306 333 320 331 79 99 127 139 253 258 231 309 117 282 252 275 351 346 332 325 2 328 279 254 332 323 237 132 108 101 102
312 311 313 329 137 208 215 72 186 170 267 253 286 284 297 8 5 20 356 5 161 60 330 203 343 213 263 247 7 334 337 331 259 350 332 284 290 278 189 156 146 139 119 126
313 315 281 193 226 164 91 335 131 197 283 288 250 291 345 349 45 312 197 336 277 1 352 58 284 317 307 355 327 323 333 326 310 321 323 336 316 298 214 176 166 149 142 134
317 302 253 194 87 322 231 151 189 186 184 218 257 209 276 316 352 53 299 12 29 279 68 295 346 93 307 337 329 325 330 326 324 320 333 341 332 292 211 238 220 160 155 139
21 5 328 333 315 201 203 214 219 159 223 189 238 222 286 109 286 343 1 357 349 271 82 327 78 168 326 334 333 347 349 341 332 310 296 297 277 259 207 155 21 56 137 137
309 291 289 286 267 156 234 219 185 217 243 187 202 184 223 150 231 254 150 275 216 250 359 265 217 129 292 318 333 342 351 352 353 345 336 349 355 166 135 123 106 98 86 100
181 232 263 3 183 172 217 195 197 226 190 189 183 175 198 174 213 217 247 240 252 269 226 283 258 267 290 317 327 334 351 349 354 15 22 47 71 87 125 135 107 118 119 141
310 328 309 209 197 237 211 220 218 280 191 156 152 123 195 68 219 320 256 72 258 253 251 342 290 279 299 318 322 324 349 357 354 18 34 43 63 74 117 144 130 149 144 130
276 235 241 229 266 269 272 279 274 198 155 145 134 103 244 110 227 288 285 208 243 254 344 285 266 298 301 303 306 327 340 2 8 13 56 64 51 55 20 112 107 137 135 143
243 235 256 233 271 264 254 261 257 157 153 132 118 119 170 169 243 223 225 229 237 290 236 256 289 292 297 290 288 315 315 197 81 62 44 35 19 9 280 122 130 147 153 143
237 239 235 261 273 259 274 255 280 146 201 181 155 199 186 121 224 240 197 220 237 252 277 246 251 267 290 297 291 286 300 257 206 127 82 43 310 341 207 125 114 149 131 141